Hourly Data Report for November 02, 2019

All times are specified in Local Standard Time (LST). Add 1 hour to adjust for Daylight Saving Time where and when it is observed.

SAINT JOHN A
NEW BRUNSWICK
Current Station Operator: NAVCAN

45°18'58.000" N
65°53'24.000" W
108.80 m
8104901
71609
YSJ

Download Data

Hourly Data (November 2019)
Hourly Data Report for November 2, 2019
TIME Temp Definition
°C
Dew Point Definition
°C
Rel Hum Definition
%
Wind Dir Definition
10's deg

Wind Spd Definition
km/h
Visibility Definition
km
Stn Press Definition
kPa
Hmdx Definition


Wind Chill Definition


Weather Definition


00:00 4.6 -3.8 55 29 19 24.1 100.26     LegendNANA
01:00 4.1 -3.8 57 28 20 24.1 100.31     LegendNANA
02:00 3.4 -3.6 60 28 18 24.1 100.40     Clear
03:00 2.9 -3.6 62 29 16 24.1 100.46     LegendNANA
04:00 2.6 -4.2 61 28 9 24.1 100.59     LegendNANA
05:00 2.1 -4.1 64 29 9 24.1 100.67     Clear
06:00 1.6 -3.9 67 29 9 24.1 100.73     LegendNANA
07:00 1.0 -3.7 71 29 10 24.1 100.79     LegendNANA
08:00 2.1 -3.2 68 31 10 24.1 100.87     Mainly Clear
09:00 3.5 -4.2 57 32 17 24.1 100.92     LegendNANA
10:00 4.3 -4.6 52 34 11 24.1 100.94     LegendNANA
11:00 5.1 -4.3 51 29 4 24.1 100.95     Mainly Clear
12:00 5.7 -4.6 48 36 3 24.1 100.90     LegendNANA
13:00 6.8 -3.6 47 3 3 24.1 100.84     LegendNANA
14:00 7.5 -3.2 47 8 4 24.1 100.82     Clear
15:00 7.1 -2.0 52 19 20 24.1 100.83     LegendNANA
16:00 5.9 -2.2 56 18 17 24.1 100.78     LegendNANA
17:00 4.4 -1.7 65 17 10 24.1 100.79     Clear
18:00 1.5 -1.3 82 36 1 24.1 100.80     LegendNANA
19:00 -0.7 -1.9 92 8 3 24.1 100.74   -2 LegendNANA
20:00 -1.2 -2.1 94 36 2 24.1 100.72   -2 Clear
21:00 -1.1 -1.9 94 4 4 24.1 100.68   -2 LegendNANA
22:00 -2.0 -2.5 96 2 3 24.1 100.65   -3 LegendNANA
23:00 -1.9 -2.3 97 7 5 24.1 100.55   -4 Mainly Clear

Notes on Data Quality.

Legend

  • E = Estimated
  • M = Missing
  • NA = Not Available
Date modified: